Weather in Chapaevka

Russia / Moscow Oblast     55°35′36″N   36°38′55″E
temp.,
°C
wind,
m/s
gust,
m/s
humid.,
%
clouds,
%
prec.,
mm/h
press.,
hPa
HPBL,
m
18 may, tue
tue1800:00+17ese413910 0.0 1008349
03:00+16ese412880 0.0 1008327
06:00+16ese3118212 0.0 1008298
09:00+21se59555 0.0 1008521
12:00+25se69429 0.0 10081032
15:00+27ese6104114 0.0 10072088
18:00+24ese511585 0.0 1006873
21:00+21ese615648 0.0 10061007
19 may, wed
wed1900:00+18se410835 0.0 1006397
03:00+15ese23975 0.0 100768
06:00+16se149397 0.0 1006150
09:00+20sse486688 0.0 1007954
12:00+20sse6106634 0.6 10071532
15:00+23sse59461 0.7 10072170
18:00+22se4757100 0.0 10071669
21:00+16ese249143 0.0 100774
20 may, thu
thu2000:00+15e229194 0.0 100632
03:00+13ese399999 2.0 1005267
06:00+15sse41096100 1.1 1005514
09:00+17se587676 1.1 10051017
12:00+17sse696992 0.7 10051426
15:00+18sse696358 1.6 10051592
18:00+16sse49825 1.3 1005986
21:00+12sse399723 1.7 1005281
21 may, fri
fri2100:00+11sse2898100 0.2 1004203
03:00+11ssw499599 0.4 1005631
06:00+9ssw489574 0.1 1005596
09:00+9ssw5991100 0.3 1006828
12:00+9sw51095100 0.3 10071007
15:00+9wsw61291100 0.3 1011987
18:00+13wnw5127035 0.0 10141413
21:00+10ssw2280100 0.0 101624
22 may, sat
sat2200:00+9sw2982100 0.0 1017216
03:00+7sw25943 0.0 101986
06:00+8sw13857 0.0 102090
09:00+15sw225921 0.0 1020724
12:00+18ssw2243100 0.0 10191599
15:00+18sse3244100 0.0 10191767
18:00+15sse4673100 0.0 1019513
21:00+9se22944 0.0 101922